| time (UTC) | temp F | wind direction | speed MPH | gust MPH | rain 1hr in | rain 24hr in | rain mn in | humidity % | barometer mb |
| 20260904162019 | 92 | 0.0 | 1.0 | 0.00 | 0.00 | 0.00 | 67 | 1020.2 | |
| 20260904161523 | 92 | 248 | 1.0 | 2.0 | 0.00 | 0.00 | 0.00 | 66 | 1020.3 |
| 20260904161018 | 92 | 90 | 1.0 | 2.0 | 0.00 | 0.00 | 0.00 | 66 | 1020.4 |
| 20260904160518 | 92 | 0.0 | 0.0 | 0.00 | 0.00 | 0.00 | 68 | 1020.4 | |
| 20260904160017 | 92 | 248 | 1.0 | 3.0 | 0.00 | 0.00 | 0.00 | 66 | 1020.5 |
| 20260904155522 | 91 | 293 | 1.0 | 2.0 | 0.00 | 0.00 | 0.00 | 67 | 1020.4 |
| 20260904155021 | 91 | 0.0 | 1.0 | 0.00 | 0.00 | 0.00 | 70 | 1020.4 | |
| 20260904154517 | 90 | 225 | 1.0 | 2.0 | 0.00 | 0.00 | 0.00 | 69 | 1020.4 |
| 20260904154017 | 89 | 225 | 3.0 | 4.0 | 0.00 | 0.00 | 0.00 | 72 | 1020.3 |
| 20260904153516 | 88 | 0.0 | 1.0 | 0.00 | 0.00 | 0.00 | 73 | 1020.3 | |
| 20260904153020 | 88 | 0.0 | 1.0 | 0.00 | 0.00 | 0.00 | 73 | 1020.4 | |
| 20260904152524 | 88 | 23 | 1.0 | 2.0 | 0.00 | 0.00 | 0.00 | 73 | 1020.4 |
| 20260904152020 | 88 | 0.0 | 0.0 | 0.00 | 0.00 | 0.00 | 73 | 1020.4 | |
| 20260904151516 | 87 | 225 | 1.0 | 2.0 | 0.00 | 0.00 | 0.00 | 75 | 1020.5 |
| 20260904151018 | 87 | 0.0 | 1.0 | 0.00 | 0.00 | 0.00 | 75 | 1020.5 | |
| 20260904150520 | 86 | 248 | 1.0 | 3.0 | 0.00 | 0.00 | 0.00 | 75 | 1020.5 |
| 20260904150016 | 86 | 0.0 | 0.0 | 0.00 | 0.00 | 0.00 | 75 | 1020.6 | |
| 20260904145521 | 86 | 203 | 1.0 | 2.0 | 0.00 | 0.00 | 0.00 | 77 | 1020.6 |
| 20260904145019 | 85 | 0.0 | 1.0 | 0.00 | 0.00 | 0.00 | 78 | 1020.6 | |
| 20260904144517 | 85 | 0.0 | 1.0 | 0.00 | 0.00 | 0.00 | 80 | 1020.6 | |
| 20260904144016 | 85 | 68 | 1.0 | 2.0 | 0.00 | 0.00 | 0.00 | 80 | 1020.5 |
| 20260904143520 | 85 | 0 | 2.0 | 2.0 | 0.00 | 0.00 | 0.00 | 79 | 1020.5 |
| 20260904143020 | 84 | 0.0 | 2.0 | 0.00 | 0.00 | 0.00 | 81 | 1020.5 | |
| 20260904142519 | 84 | 0.0 | 1.0 | 0.00 | 0.00 | 0.00 | 80 | 1020.4 | |
| 20260904142017 | 84 | 0.0 | 1.0 | 0.00 | 0.00 | 0.00 | 80 | 1020.5 | |
| 20260904141519 | 84 | 0.0 | 1.0 | 0.00 | 0.00 | 0.00 | 80 | 1020.5 | |
| 20260904141016 | 84 | 0.0 | 2.0 | 0.00 | 0.00 | 0.00 | 81 | 1020.5 | |
| 20260904140519 | 83 | 0.0 | 0.0 | 0.00 | 0.00 | 0.00 | 81 | 1020.4 | |
| 20260904140018 | 83 | 0.0 | 1.0 | 0.00 | 0.00 | 0.00 | 82 | 1020.5 | |
| 20260904135518 | 83 | 0.0 | 0.0 | 0.00 | 0.00 | 0.00 | 82 | 1020.4 | |
| 20260904135021 | 83 | 0.0 | 0.0 | 0.00 | 0.00 | 0.00 | 82 | 1020.5 | |
| 20260904134517 | 83 | 0.0 | 1.0 | 0.00 | 0.00 | 0.00 | 83 | 1020.5 | |
| 20260904134017 | 83 | 0.0 | 1.0 | 0.00 | 0.00 | 0.00 | 82 | 1020.2 | |
| 20260904133516 | 83 | 0.0 | 0.0 | 0.00 | 0.00 | 0.00 | 84 | 1020.3 | |
| 20260904133022 | 82 | 0.0 | 0.0 | 0.00 | 0.00 | 0.00 | 84 | 1020.3 | |
| 20260904132521 | 82 | 0.0 | 0.0 | 0.00 | 0.00 | 0.00 | 84 | 1020.2 | |
| 20260904132018 | 82 | 0.0 | 0.0 | 0.00 | 0.00 | 0.00 | 84 | 1020.2 | |
| 20260904131518 | 83 | 0.0 | 0.0 | 0.00 | 0.00 | 0.00 | 84 | 1020.3 | |
| 20260904131016 | 82 | 0.0 | 0.0 | 0.00 | 0.00 | 0.00 | 86 | 1020.2 | |
| 20260904130520 | 81 | 0.0 | 1.0 | 0.00 | 0.00 | 0.00 | 89 | 1020.3 | |
| 20260904130017 | 79 | 0.0 | 0.0 | 0.00 | 0.00 | 0.00 | 91 | 1020.2 | |
| 20260904125519 | 78 | 0.0 | 0.0 | 0.00 | 0.00 | 0.00 | 95 | 1020.0 | |
| 20260904125016 | 76 | 0.0 | 1.0 | 0.00 | 0.00 | 0.00 | 96 | 1020.0 | |
| 20260904124518 | 76 | 0.0 | 0.0 | 0.00 | 0.00 | 0.00 | 96 | 1020.0 | |
| 20260904124016 | 75 | 0.0 | 0.0 | 0.00 | 0.00 | 0.00 | 96 | 1019.9 | |
| 20260904123520 | 75 | 0.0 | 0.0 | 0.00 | 0.00 | 0.00 | 96 | 1019.9 | |
| 20260904123018 | 75 | 0.0 | 0.0 | 0.00 | 0.00 | 0.00 | 96 | 1019.8 | |
| 20260904122516 | 74 | 0.0 | 0.0 | 0.00 | 0.00 | 0.00 | 96 | 1019.9 | |
| 20260904122017 | 74 | 0.0 | 0.0 | 0.00 | 0.00 | 0.00 | 96 | 1019.9 | |
| 20260904121516 | 74 | 0.0 | 0.0 | 0.00 | 0.00 | 0.00 | 96 | 1019.9 | |
| 20260904121016 | 74 | 0.0 | 0.0 | 0.00 | 0.00 | 0.00 | 97 | 1019.8 | |
| 20260904120516 | 74 | 0.0 | 0.0 | 0.00 | 0.00 | 0.00 | 97 | 1019.8 | |
| 20260904120018 | 74 | 0.0 | 0.0 | 0.00 | 0.00 | 0.00 | 97 | 1019.8 | |
| 20260904115520 | 74 | 0.0 | 0.0 | 0.00 | 0.00 | 0.00 | 97 | 1019.7 | |
| 20260904115020 | 74 | 0.0 | 0.0 | 0.00 | 0.00 | 0.00 | 97 | 1019.6 | |
| 20260904114516 | 73 | 0.0 | 0.0 | 0.00 | 0.00 | 0.00 | 97 | 1019.6 | |
| 20260904114016 | 73 | 0.0 | 0.0 | 0.00 | 0.00 | 0.00 | 97 | 1019.6 | |
| 20260904113518 | 73 | 0.0 | 0.0 | 0.00 | 0.00 | 0.00 | 97 | 1019.5 | |
| 20260904113024 | 73 | 0.0 | 0.0 | 0.00 | 0.00 | 0.00 | 97 | 1019.4 | |
| 20260904112519 | 73 | 0.0 | 0.0 | 0.00 | 0.00 | 0.00 | 97 | 1019.4 | |
| 20260904112019 | 73 | 0.0 | 0.0 | 0.00 | 0.00 | 0.00 | 97 | 1019.4 | |
| 20260904111519 | 73 | 0.0 | 0.0 | 0.00 | 0.00 | 0.00 | 97 | 1019.3 | |
| 20260904111021 | 73 | 0.0 | 0.0 | 0.00 | 0.00 | 0.00 | 96 | 1019.2 | |
| 20260904110520 | 73 | 0.0 | 0.0 | 0.00 | 0.00 | 0.00 | 96 | 1019.2 | |
| 20260904110017 | 73 | 0.0 | 0.0 | 0.00 | 0.00 | 0.00 | 96 | 1019.2 | |
| 20260904105520 | 73 | 0.0 | 0.0 | 0.00 | 0.00 | 0.00 | 96 | 1019.2 | |
| 20260904105018 | 73 | 0.0 | 0.0 | 0.00 | 0.00 | 0.00 | 96 | 1019.1 | |
| 20260904104516 | 73 | 0.0 | 0.0 | 0.00 | 0.00 | 0.00 | 96 | 1019.0 | |
| 20260904104016 | 73 | 0.0 | 0.0 | 0.00 | 0.00 | 0.00 | 96 | 1019.1 | |
| 20260904103517 | 74 | 0.0 | 0.0 | 0.00 | 0.00 | 0.00 | 96 | 1018.9 | |
| 20260904103018 | 74 | 0.0 | 0.0 | 0.00 | 0.00 | 0.00 | 96 | 1019.0 | |
| 20260904102517 | 74 | 0.0 | 0.0 | 0.00 | 0.00 | 0.00 | 96 | 1019.0 | |
| 20260904102018 | 74 | 0.0 | 0.0 | 0.00 | 0.00 | 0.00 | 96 | 1018.9 | |
| 20260904101520 | 74 | 0.0 | 0.0 | 0.00 | 0.00 | 0.00 | 96 | 1018.9 | |
| 20260904101016 | 74 | 0.0 | 0.0 | 0.00 | 0.00 | 0.00 | 96 | 1018.9 | |
| 20260904100519 | 74 | 0.0 | 0.0 | 0.00 | 0.00 | 0.00 | 96 | 1018.9 | |
| 20260904100018 | 74 | 0.0 | 0.0 | 0.00 | 0.00 | 0.00 | 96 | 1018.9 | |
| 20260904095519 | 74 | 0.0 | 0.0 | 0.00 | 0.00 | 0.00 | 95 | 1018.8 | |
| 20260904095018 | 74 | 0.0 | 0.0 | 0.00 | 0.00 | 0.00 | 95 | 1018.7 | |
| 20260904094517 | 74 | 0.0 | 0.0 | 0.00 | 0.00 | 0.00 | 95 | 1018.7 | |
| 20260904094019 | 74 | 0.0 | 0.0 | 0.00 | 0.00 | 0.00 | 95 | 1018.6 | |
| 20260904093517 | 74 | 0.0 | 0.0 | 0.00 | 0.00 | 0.00 | 95 | 1018.6 | |
| 20260904093019 | 74 | 0.0 | 0.0 | 0.00 | 0.00 | 0.00 | 95 | 1018.5 | |
| 20260904092518 | 74 | 0.0 | 0.0 | 0.00 | 0.00 | 0.00 | 95 | 1018.5 | |
| 20260904092016 | 74 | 0.0 | 0.0 | 0.00 | 0.00 | 0.00 | 95 | 1018.4 | |
| 20260904091520 | 74 | 0.0 | 0.0 | 0.00 | 0.00 | 0.00 | 95 | 1018.6 | |
| 20260904091019 | 74 | 0.0 | 0.0 | 0.00 | 0.00 | 0.00 | 94 | 1018.6 | |
| 20260904090520 | 74 | 0.0 | 0.0 | 0.00 | 0.00 | 0.00 | 94 | 1018.6 | |
| 20260904090018 | 75 | 0.0 | 0.0 | 0.00 | 0.00 | 0.00 | 94 | 1018.6 | |
| 20260904085516 | 75 | 0.0 | 0.0 | 0.00 | 0.00 | 0.00 | 94 | 1018.6 | |
| 20260904085017 | 75 | 0.0 | 0.0 | 0.00 | 0.00 | 0.00 | 94 | 1018.6 | |
| 20260904084517 | 75 | 0.0 | 0.0 | 0.00 | 0.00 | 0.00 | 94 | 1018.6 | |
| 20260904084016 | 75 | 0.0 | 0.0 | 0.00 | 0.00 | 0.00 | 94 | 1018.5 | |
| 20260904083520 | 75 | 0.0 | 0.0 | 0.00 | 0.00 | 0.00 | 94 | 1018.5 | |
| 20260904083019 | 75 | 0.0 | 0.0 | 0.00 | 0.00 | 0.00 | 94 | 1018.5 | |
| 20260904082520 | 75 | 0.0 | 0.0 | 0.00 | 0.00 | 0.00 | 94 | 1018.6 | |
| 20260904082022 | 75 | 0.0 | 0.0 | 0.00 | 0.00 | 0.00 | 94 | 1018.6 | |
| 20260904081517 | 75 | 0.0 | 0.0 | 0.00 | 0.00 | 0.00 | 93 | 1018.6 | |
| 20260904081017 | 75 | 0.0 | 0.0 | 0.00 | 0.00 | 0.00 | 94 | 1018.6 | |
| 20260904080521 | 75 | 0.0 | 0.0 | 0.00 | 0.00 | 0.00 | 93 | 1018.6 | |
| 20260904080019 | 75 | 0.0 | 0.0 | 0.00 | 0.00 | 0.00 | 93 | 1018.5 | |
| 20260904075518 | 75 | 0.0 | 0.0 | 0.00 | 0.00 | 0.00 | 93 | 1018.5 | |
| 20260904075023 | 75 | 0.0 | 0.0 | 0.00 | 0.00 | 0.00 | 93 | 1018.5 | |
| 20260904074518 | 75 | 0.0 | 0.0 | 0.00 | 0.00 | 0.00 | 93 | 1018.5 | |
| 20260904074023 | 75 | 0.0 | 0.0 | 0.00 | 0.00 | 0.00 | 93 | 1018.6 | |
| 20260904073520 | 75 | 0.0 | 0.0 | 0.00 | 0.00 | 0.00 | 93 | 1018.6 | |
| 20260904073022 | 75 | 0.0 | 0.0 | 0.00 | 0.00 | 0.00 | 93 | 1018.6 | |
| 20260904072517 | 75 | 0.0 | 0.0 | 0.00 | 0.00 | 0.00 | 93 | 1018.5 | |
| 20260904072021 | 75 | 0.0 | 0.0 | 0.00 | 0.00 | 0.00 | 92 | 1018.5 | |
| 20260904071519 | 76 | 0.0 | 0.0 | 0.00 | 0.00 | 0.00 | 92 | 1018.6 | |
| 20260904071021 | 76 | 0.0 | 0.0 | 0.00 | 0.00 | 0.00 | 92 | 1018.7 | |
| 20260904070518 | 76 | 0.0 | 0.0 | 0.00 | 0.00 | 0.00 | 92 | 1018.6 | |
| 20260904070022 | 76 | 0.0 | 0.0 | 0.00 | 0.00 | 0.00 | 92 | 1018.7 | |
| 20260904065521 | 76 | 0.0 | 0.0 | 0.00 | 0.00 | 0.00 | 92 | 1018.7 | |
| 20260904065021 | 76 | 0.0 | 0.0 | 0.00 | 0.00 | 0.00 | 91 | 1018.7 | |
| 20260904064523 | 76 | 0.0 | 0.0 | 0.00 | 0.00 | 0.00 | 91 | 1018.7 | |
| 20260904064022 | 76 | 0.0 | 0.0 | 0.00 | 0.00 | 0.00 | 91 | 1018.7 | |
| 20260904063518 | 77 | 0.0 | 0.0 | 0.00 | 0.00 | 0.00 | 91 | 1018.6 | |
| 20260904063018 | 77 | 0.0 | 0.0 | 0.00 | 0.00 | 0.00 | 90 | 1018.7 | |
| 20260904062523 | 77 | 0.0 | 0.0 | 0.00 | 0.00 | 0.00 | 90 | 1018.9 | |
| 20260904062020 | 77 | 0.0 | 0.0 | 0.00 | 0.00 | 0.00 | 90 | 1018.9 | |
| 20260904061521 | 77 | 0.0 | 0.0 | 0.00 | 0.00 | 0.00 | 90 | 1018.8 | |
| 20260904061020 | 77 | 0.0 | 0.0 | 0.00 | 0.00 | 0.00 | 90 | 1018.9 | |
| 20260904060518 | 77 | 0.0 | 0.0 | 0.00 | 0.00 | 0.00 | 90 | 1018.9 | |
| 20260904060016 | 77 | 0.0 | 0.0 | 0.00 | 0.00 | 0.00 | 90 | 1018.8 | |
| 20260904055522 | 77 | 0.0 | 0.0 | 0.00 | 0.00 | 0.00 | 89 | 1018.9 | |
| 20260904055020 | 77 | 0.0 | 0.0 | 0.00 | 0.00 | 0.00 | 89 | 1019.0 | |
| 20260904054517 | 77 | 0.0 | 0.0 | 0.00 | 0.00 | 0.00 | 89 | 1019.0 | |
| 20260904054023 | 77 | 0.0 | 0.0 | 0.00 | 0.00 | 0.00 | 89 | 1019.1 | |
| 20260904053519 | 77 | 0.0 | 0.0 | 0.00 | 0.00 | 0.00 | 89 | 1019.1 | |
| 20260904053018 | 77 | 0.0 | 0.0 | 0.00 | 0.00 | 0.00 | 88 | 1019.2 | |
| 20260904052520 | 78 | 0.0 | 0.0 | 0.00 | 0.00 | 0.00 | 88 | 1019.2 | |
| 20260904052022 | 78 | 0.0 | 0.0 | 0.00 | 0.00 | 0.00 | 88 | 1019.3 | |
| 20260904051521 | 78 | 0.0 | 0.0 | 0.00 | 0.00 | 0.00 | 88 | 1019.3 | |
| 20260904051020 | 78 | 0.0 | 0.0 | 0.00 | 0.00 | 0.00 | 88 | 1019.4 | |
| 20260904050520 | 78 | 0.0 | 0.0 | 0.00 | 0.00 | 0.00 | 88 | 1019.4 | |
| 20260904050017 | 78 | 0.0 | 0.0 | 0.00 | 0.00 | 0.00 | 88 | 1019.4 | |
| 20260904045517 | 78 | 0.0 | 0.0 | 0.00 | 0.00 | 0.00 | 88 | 1019.5 | |
| 20260904045017 | 78 | 0.0 | 0.0 | 0.00 | 0.00 | 0.00 | 87 | 1019.4 | |
| 20260904044521 | 78 | 0.0 | 0.0 | 0.00 | 0.00 | 0.00 | 87 | 1019.3 | |
| 20260904044021 | 78 | 0.0 | 0.0 | 0.00 | 0.00 | 0.00 | 87 | 1019.4 | |
| 20260904043518 | 78 | 0.0 | 0.0 | 0.00 | 0.00 | 0.00 | 87 | 1019.4 | |
| 20260904043021 | 79 | 0.0 | 0.0 | 0.00 | 0.00 | 0.00 | 86 | 1019.4 | |
| 20260904042519 | 79 | 0.0 | 0.0 | 0.00 | 0.00 | 0.00 | 86 | 1019.4 | |
| 20260904042025 | 79 | 0.0 | 0.0 | 0.00 | 0.00 | 0.00 | 86 | 1019.4 | |
| 20260904041517 | 79 | 0.0 | 0.0 | 0.00 | 0.00 | 0.00 | 86 | 1019.4 | |
| 20260904041024 | 79 | 0.0 | 0.0 | 0.00 | 0.00 | 0.00 | 85 | 1019.3 | |
| 20260904040521 | 79 | 0.0 | 0.0 | 0.00 | 0.00 | 0.00 | 85 | 1019.3 | |
| 20260904040020 | 80 | 0.0 | 0.0 | 0.00 | 0.00 | 0.00 | 85 | 1019.4 | |
| 20260904035520 | 80 | 0.0 | 0.0 | 0.00 | 0.00 | 0.00 | 84 | 1019.4 | |
| 20260904035021 | 80 | 0.0 | 0.0 | 0.00 | 0.00 | 0.00 | 84 | 1019.4 | |
| 20260904034517 | 80 | 0.0 | 0.0 | 0.00 | 0.00 | 0.00 | 83 | 1019.4 | |
| 20260904034020 | 80 | 0.0 | 0.0 | 0.00 | 0.00 | 0.00 | 83 | 1019.3 | |
| 20260904033521 | 80 | 0.0 | 0.0 | 0.00 | 0.00 | 0.00 | 83 | 1019.3 | |
| 20260904033020 | 80 | 0.0 | 0.0 | 0.00 | 0.00 | 0.00 | 83 | 1019.4 | |
| 20260904032520 | 80 | 0.0 | 0.0 | 0.00 | 0.00 | 0.00 | 82 | 1019.4 | |
| 20260904032018 | 80 | 0.0 | 0.0 | 0.00 | 0.00 | 0.00 | 82 | 1019.4 | |
| 20260904031520 | 80 | 0.0 | 0.0 | 0.00 | 0.00 | 0.00 | 83 | 1019.4 | |
| 20260904031017 | 81 | 0.0 | 0.0 | 0.00 | 0.00 | 0.00 | 82 | 1019.3 | |
| 20260904030520 | 81 | 0.0 | 0.0 | 0.00 | 0.00 | 0.00 | 82 | 1019.4 | |
| 20260904030016 | 81 | 0.0 | 0.0 | 0.00 | 0.00 | 0.00 | 81 | 1019.5 | |
| 20260904025519 | 81 | 0.0 | 0.0 | 0.00 | 0.00 | 0.00 | 81 | 1019.5 | |
| 20260904025017 | 81 | 0.0 | 0.0 | 0.00 | 0.00 | 0.00 | 81 | 1019.4 | |
| 20260904024521 | 81 | 0.0 | 0.0 | 0.00 | 0.00 | 0.00 | 80 | 1019.4 | |
| 20260904024017 | 82 | 0.0 | 0.0 | 0.00 | 0.00 | 0.00 | 80 | 1019.3 | |
| 20260904023520 | 82 | 0.0 | 0.0 | 0.00 | 0.00 | 0.00 | 80 | 1019.3 | |
| 20260904023021 | 82 | 0.0 | 0.0 | 0.00 | 0.00 | 0.00 | 80 | 1019.4 | |
| 20260904022519 | 82 | 0.0 | 0.0 | 0.00 | 0.00 | 0.00 | 79 | 1019.3 | |
| 20260904022016 | 82 | 0.0 | 0.0 | 0.00 | 0.00 | 0.00 | 79 | 1019.4 | |
| 20260904021519 | 82 | 0.0 | 0.0 | 0.00 | 0.00 | 0.00 | 78 | 1019.2 | |
| 20260904021021 | 82 | 0.0 | 0.0 | 0.00 | 0.00 | 0.00 | 78 | 1019.1 | |
| 20260904020517 | 82 | 0.0 | 0.0 | 0.00 | 0.00 | 0.00 | 78 | 1019.1 | |
| 20260904020019 | 82 | 0.0 | 0.0 | 0.00 | 0.00 | 0.00 | 78 | 1019.0 | |
| 20260904015521 | 82 | 0.0 | 0.0 | 0.00 | 0.00 | 0.00 | 77 | 1019.0 | |
| 20260904015021 | 83 | 0.0 | 0.0 | 0.00 | 0.00 | 0.00 | 77 | 1019.1 | |
| 20260904014519 | 83 | 0.0 | 0.0 | 0.00 | 0.00 | 0.00 | 76 | 1019.0 | |
| 20260904014016 | 83 | 0.0 | 0.0 | 0.00 | 0.00 | 0.00 | 75 | 1018.9 | |
| 20260904013517 | 83 | 0.0 | 0.0 | 0.00 | 0.00 | 0.00 | 75 | 1018.8 | |
| 20260904013016 | 83 | 0.0 | 0.0 | 0.00 | 0.00 | 0.00 | 74 | 1018.7 | |
| 20260904012519 | 83 | 0.0 | 0.0 | 0.00 | 0.00 | 0.00 | 74 | 1018.5 | |
| 20260904012016 | 83 | 0.0 | 0.0 | 0.00 | 0.00 | 0.00 | 74 | 1018.5 | |
| 20260904011516 | 84 | 0.0 | 0.0 | 0.00 | 0.00 | 0.00 | 72 | 1018.2 | |
| 20260904011018 | 84 | 0.0 | 0.0 | 0.00 | 0.00 | 0.00 | 72 | 1018.2 | |
| 20260904010516 | 84 | 0.0 | 0.0 | 0.00 | 0.00 | 0.00 | 71 | 1018.1 | |
| 20260904010021 | 84 | 0.0 | 0.0 | 0.00 | 0.00 | 0.00 | 71 | 1018.1 | |
| 20260904005519 | 85 | 0.0 | 0.0 | 0.00 | 0.00 | 0.00 | 70 | 1018.0 | |
| 20260904005019 | 85 | 0.0 | 0.0 | 0.00 | 0.00 | 0.00 | 69 | 1018.0 | |
| 20260904004517 | 85 | 0.0 | 0.0 | 0.00 | 0.00 | 0.00 | 69 | 1017.8 | |
| 20260904004019 | 85 | 0.0 | 0.0 | 0.00 | 0.00 | 0.00 | 69 | 1017.7 | |
| 20260904003519 | 85 | 0.0 | 0.0 | 0.00 | 0.00 | 0.00 | 69 | 1017.8 | |
| 20260904003019 | 85 | 0.0 | 0.0 | 0.00 | 0.00 | 0.00 | 68 | 1017.8 | |
| 20260904002521 | 86 | 0.0 | 0.0 | 0.00 | 0.00 | 0.00 | 68 | 1017.8 | |
| 20260904002017 | 86 | 0.0 | 0.0 | 0.00 | 0.00 | 0.00 | 67 | 1017.8 | |
| 20260904001519 | 86 | 0.0 | 0.0 | 0.00 | 0.00 | 0.00 | 67 | 1017.6 | |
| 20260904001016 | 87 | 0.0 | 0.0 | 0.00 | 0.00 | 0.00 | 67 | 1017.4 | |
| 20260904000521 | 87 | 0.0 | 0.0 | 0.00 | 0.00 | 0.00 | 66 | 1017.3 | |
| 20260904000020 | 87 | 0.0 | 0.0 | 0.00 | 0.00 | 0.00 | 66 | 1017.4 | |
| 20260903235517 | 88 | 0.0 | 0.0 | 0.00 | 0.00 | 0.00 | 65 | 1017.4 | |
| 20260903235021 | 88 | 0.0 | 0.0 | 0.00 | 0.00 | 0.00 | 65 | 1017.4 | |
| 20260903234520 | 88 | 0.0 | 0.0 | 0.00 | 0.00 | 0.00 | 65 | 1017.3 | |
| 20260903234021 | 89 | 0.0 | 0.0 | 0.00 | 0.00 | 0.00 | 64 | 1017.3 | |
| 20260903233519 | 89 | 0.0 | 0.0 | 0.00 | 0.00 | 0.00 | 64 | 1017.3 | |
| 20260903233021 | 90 | 0.0 | 0.0 | 0.00 | 0.00 | 0.00 | 63 | 1017.2 | |
| 20260903232520 | 90 | 0.0 | 0.0 | 0.00 | 0.00 | 0.00 | 62 | 1017.2 | |
| 20260903232016 | 91 | 0.0 | 0.0 | 0.00 | 0.00 | 0.00 | 61 | 1017.3 | |
| 20260903231517 | 91 | 0.0 | 0.0 | 0.00 | 0.00 | 0.00 | 60 | 1017.2 | |
| 20260903231020 | 92 | 0.0 | 0.0 | 0.00 | 0.00 | 0.00 | 58 | 1017.3 | |
| 20260903230516 | 93 | 0.0 | 0.0 | 0.00 | 0.00 | 0.00 | 57 | 1017.2 | |
| 20260903230017 | 93 | 0.0 | 0.0 | 0.00 | 0.00 | 0.00 | 56 | 1017.2 | |
| 20260903225522 | 94 | 0.0 | 1.0 | 0.00 | 0.00 | 0.00 | 53 | 1017.2 | |
| 20260903225020 | 94 | 23 | 1.0 | 1.0 | 0.00 | 0.00 | 0.00 | 52 | 1017.2 |
| 20260903224517 | 94 | 0.0 | 2.0 | 0.00 | 0.00 | 0.00 | 52 | 1017.2 | |
| 20260903224022 | 95 | 293 | 1.0 | 1.0 | 0.00 | 0.00 | 0.00 | 52 | 1017.3 |
| 20260903223521 | 95 | 0 | 1.0 | 2.0 | 0.00 | 0.00 | 0.00 | 52 | 1017.4 |
| 20260903223017 | 95 | 0.0 | 1.0 | 0.00 | 0.00 | 0.00 | 54 | 1017.4 | |
| 20260903222519 | 95 | 0.0 | 0.0 | 0.00 | 0.00 | 0.00 | 53 | 1017.4 | |
| 20260903222017 | 95 | 338 | 1.0 | 1.0 | 0.00 | 0.00 | 0.00 | 52 | 1017.4 |
| 20260903221518 | 95 | 0.0 | 1.0 | 0.00 | 0.00 | 0.00 | 52 | 1017.4 | |
| 20260903221020 | 95 | 0 | 1.0 | 2.0 | 0.00 | 0.00 | 0.00 | 51 | 1017.4 |
| 20260903220519 | 96 | 0.0 | 1.0 | 0.00 | 0.00 | 0.00 | 53 | 1017.4 | |
| 20260903220017 | 96 | 23 | 2.0 | 6.0 | 0.00 | 0.00 | 0.00 | 52 | 1017.5 |
| 20260903215516 | 96 | 0 | 1.0 | 1.0 | 0.00 | 0.00 | 0.00 | 52 | 1017.5 |
| 20260903215017 | 96 | 293 | 1.0 | 2.0 | 0.00 | 0.00 | 0.00 | 52 | 1017.5 |
| 20260903214522 | 96 | 293 | 1.0 | 2.0 | 0.00 | 0.00 | 0.00 | 50 | 1017.5 |
| 20260903214019 | 96 | 0 | 3.0 | 4.0 | 0.00 | 0.00 | 0.00 | 52 | 1017.4 |
| 20260903213518 | 97 | 23 | 2.0 | 5.0 | 0.00 | 0.00 | 0.00 | 51 | 1017.5 |
| 20260903213021 | 97 | 0 | 1.0 | 2.0 | 0.00 | 0.00 | 0.00 | 51 | 1017.5 |
| 20260903212517 | 97 | 0.0 | 1.0 | 0.00 | 0.00 | 0.00 | 51 | 1017.5 | |
| 20260903212016 | 97 | 0 | 1.0 | 2.0 | 0.00 | 0.00 | 0.00 | 51 | 1017.5 |
| 20260903211522 | 98 | 0 | 2.0 | 4.0 | 0.00 | 0.00 | 0.00 | 51 | 1017.6 |
| 20260903211020 | 98 | 338 | 1.0 | 1.0 | 0.00 | 0.00 | 0.00 | 49 | 1017.8 |
| 20260903210516 | 99 | 338 | 1.0 | 3.0 | 0.00 | 0.00 | 0.00 | 49 | 1017.8 |
| 20260903210019 | 98 | 0.0 | 1.0 | 0.00 | 0.00 | 0.00 | 51 | 1017.8 | |
| 20260903205519 | 98 | 0.0 | 1.0 | 0.00 | 0.00 | 0.00 | 49 | 1018.0 | |
| 20260903205019 | 98 | 248 | 3.0 | 4.0 | 0.00 | 0.00 | 0.00 | 48 | 1018.0 |
| 20260903204520 | 98 | 45 | 1.0 | 2.0 | 0.00 | 0.00 | 0.00 | 50 | 1018.2 |
| 20260903204021 | 97 | 68 | 1.0 | 1.0 | 0.00 | 0.00 | 0.00 | 49 | 1018.2 |
| 20260903203517 | 98 | 270 | 1.0 | 2.0 | 0.00 | 0.00 | 0.00 | 50 | 1018.2 |
| 20260903203021 | 98 | 338 | 3.0 | 4.0 | 0.00 | 0.00 | 0.00 | 50 | 1018.2 |
| 20260903202518 | 98 | 23 | 2.0 | 5.0 | 0.00 | 0.00 | 0.00 | 50 | 1018.2 |
| 20260903202018 | 98 | 23 | 2.0 | 2.0 | 0.00 | 0.00 | 0.00 | 49 | 1018.3 |
| 20260903201517 | 98 | 113 | 2.0 | 3.0 | 0.00 | 0.00 | 0.00 | 50 | 1018.4 |
| 20260903201018 | 98 | 315 | 2.0 | 5.0 | 0.00 | 0.00 | 0.00 | 50 | 1018.4 |
| 20260903200520 | 98 | 0.0 | 1.0 | 0.00 | 0.00 | 0.00 | 54 | 1018.4 | |
| 20260903200020 | 98 | 68 | 2.0 | 2.0 | 0.00 | 0.00 | 0.00 | 51 | 1018.4 |
| 20260903195519 | 98 | 315 | 1.0 | 3.0 | 0.00 | 0.00 | 0.00 | 50 | 1018.6 |
| 20260903195019 | 99 | 90 | 1.0 | 3.0 | 0.00 | 0.00 | 0.00 | 51 | 1018.6 |
| 20260903194520 | 99 | 293 | 1.0 | 2.0 | 0.00 | 0.00 | 0.00 | 51 | 1018.8 |
| 20260903194018 | 98 | 68 | 1.0 | 1.0 | 0.00 | 0.00 | 0.00 | 54 | 1018.8 |
| 20260903193521 | 98 | 0.0 | 1.0 | 0.00 | 0.00 | 0.00 | 53 | 1018.9 | |
| 20260903193020 | 97 | 338 | 1.0 | 2.0 | 0.00 | 0.00 | 0.00 | 52 | 1018.9 |
| 20260903192516 | 97 | 315 | 1.0 | 3.0 | 0.00 | 0.00 | 0.00 | 53 | 1018.9 |
| 20260903192018 | 98 | 90 | 1.0 | 2.0 | 0.00 | 0.00 | 0.00 | 53 | 1019.1 |
| 20260903191521 | 98 | 0.0 | 1.0 | 0.00 | 0.00 | 0.00 | 54 | 1019.1 | |
| 20260903191017 | 98 | 90 | 2.0 | 3.0 | 0.00 | 0.00 | 0.00 | 53 | 1019.1 |
| 20260903190517 | 98 | 68 | 1.0 | 3.0 | 0.00 | 0.00 | 0.00 | 51 | 1019.1 |
| 20260903190019 | 98 | 68 | 1.0 | 2.0 | 0.00 | 0.00 | 0.00 | 53 | 1019.2 |
| 20260903185523 | 97 | 68 | 1.0 | 3.0 | 0.00 | 0.00 | 0.00 | 52 | 1019.2 |
| 20260903185019 | 97 | 68 | 2.0 | 3.0 | 0.00 | 0.00 | 0.00 | 51 | 1019.3 |
| 20260903184518 | 97 | 270 | 1.0 | 2.0 | 0.00 | 0.00 | 0.00 | 52 | 1019.3 |
| 20260903184020 | 97 | 203 | 1.0 | 1.0 | 0.00 | 0.00 | 0.00 | 52 | 1019.3 |
| 20260903183516 | 97 | 338 | 2.0 | 3.0 | 0.00 | 0.00 | 0.00 | 52 | 1019.5 |
| 20260903183019 | 97 | 68 | 2.0 | 4.0 | 0.00 | 0.00 | 0.00 | 52 | 1019.6 |
| 20260903182516 | 98 | 0 | 1.0 | 4.0 | 0.00 | 0.00 | 0.00 | 52 | 1019.7 |
| 20260903182018 | 97 | 338 | 3.0 | 4.0 | 0.00 | 0.00 | 0.00 | 51 | 1019.7 |
| 20260903181516 | 97 | 0.0 | 1.0 | 0.00 | 0.00 | 0.00 | 57 | 1019.9 | |
| 20260903181016 | 97 | 0.0 | 1.0 | 0.00 | 0.00 | 0.00 | 54 | 1019.8 | |
| 20260903180516 | 97 | 0.0 | 1.0 | 0.00 | 0.00 | 0.00 | 57 | 1019.9 | |
| 20260903180019 | 97 | 0.0 | 0.0 | 0.00 | 0.00 | 0.00 | 56 | 1020.0 | |
| 20260903175518 | 96 | 68 | 1.0 | 3.0 | 0.00 | 0.00 | 0.00 | 55 | 1020.0 |
| 20260903175020 | 97 | 23 | 1.0 | 3.0 | 0.00 | 0.00 | 0.00 | 55 | 1020.0 |
| 20260903174516 | 96 | 248 | 1.0 | 2.0 | 0.00 | 0.00 | 0.00 | 56 | 1020.1 |
| 20260903174016 | 95 | 158 | 1.0 | 2.0 | 0.00 | 0.00 | 0.00 | 56 | 1020.2 |
| 20260903173518 | 95 | 0 | 4.0 | 6.0 | 0.00 | 0.00 | 0.00 | 54 | 1020.3 |
| 20260903173020 | 95 | 0 | 1.0 | 2.0 | 0.00 | 0.00 | 0.00 | 57 | 1020.3 |
| 20260903172518 | 95 | 90 | 1.0 | 2.0 | 0.00 | 0.00 | 0.00 | 57 | 1020.5 |
| 20260903172021 | 95 | 338 | 2.0 | 4.0 | 0.00 | 0.00 | 0.00 | 55 | 1020.5 |
| 20260903171521 | 96 | 23 | 2.0 | 4.0 | 0.00 | 0.00 | 0.00 | 57 | 1020.5 |
| 20260903171023 | 95 | 0 | 2.0 | 4.0 | 0.00 | 0.00 | 0.00 | 58 | 1020.7 |
| 20260903170519 | 95 | 225 | 1.0 | 1.0 | 0.00 | 0.00 | 0.00 | 60 | 1020.7 |
| 20260903170026 | 94 | 90 | 2.0 | 2.0 | 0.00 | 0.00 | 0.00 | 62 | 1020.7 |
| 20260903165526 | 93 | 225 | 1.0 | 2.0 | 0.00 | 0.00 | 0.00 | 63 | 1020.8 |
| 20260903165020 | 93 | 45 | 2.0 | 3.0 | 0.00 | 0.00 | 0.00 | 63 | 1020.8 |
| 20260903164521 | 94 | 90 | 1.0 | 6.0 | 0.00 | 0.00 | 0.00 | 63 | 1020.8 |
| 20260903164020 | 94 | 68 | 1.0 | 2.0 | 0.00 | 0.00 | 0.00 | 63 | 1021.0 |
| 20260903163519 | 94 | 0.0 | 1.0 | 0.00 | 0.00 | 0.00 | 65 | 1021.0 | |
| 20260903163018 | 93 | 0.0 | 2.0 | 0.00 | 0.00 | 0.00 | 65 | 1021.1 | |
| 20260903162518 | 92 | 0.0 | 2.0 | 0.00 | 0.00 | 0.00 | 66 | 1021.0 |